Weather History for West Palm Beach, FL

Change the Weather History Date:

Sunday, December 29, 2013

  Actual Average Record
Temperature  
Mean Temperature 79 °F 66 °F  
Max Temperature 83 °F 75 °F 88 °F (1926)
Min Temperature 74 °F 58 °F 24 °F (1894)
Degree Days  
Heating Degree Days 0 3  
Month to date heating degree days 0 52  
Since 1 July heating degree days 4 64  
Cooling Degree Days 14 4  
Month to date cooling degree days 280 147  
Year to date cooling degree days 4481 4013  
Growing Degree Days 28 (Base 50)    
Moisture  
Dew Point 71 °F    
Average Humidity 81    
Maximum Humidity 93    
Minimum Humidity 69    
Precipitation  
Precipitation 0.07 in 0.10 in 0.88 in (1924)
Month to date precipitation 4.32 3.17  
Year to date precipitation 64.96 62.12  
Snow  
Snow 0.00 in - - ()
Month to date snowfall 0.0  
Since 1 July snowfall 0.0  
Snow Depth 0.00 in    
Sea Level Pressure  
Sea Level Pressure 29.99 in    
Wind  
Wind Speed 11 mph (South)    
Max Wind Speed 23 mph    
Max Gust Speed 28 mph    
Visibility 10 miles    
Events      
T = Trace of Precipitation, MM = Missing Value Source: NWS Daily Summary

Daily Weather History Graph

Daily Weather History Graph

Search for Another Location

Airport:

Trip Planner

Search our weather history database for the weather conditions in past years. The results will help you decide how hot, cold, wet, or windy it might be!

Date:

Astronomy

Dec. 29, 2013 Rise Set
Actual Time 7:08 AM EST 5:37 PM EST
Civil Twilight 6:42 AM EST 6:02 PM EST
Nautical Twilight 6:13 AM EST 6:31 PM EST
Astronomical Twilight 5:45 AM EST 6:59 PM EST
Moon 3:57 AM EST (12/29) 3:07 PM EST (12/29)
Length of Visible Light 11h 19m
Length of Day
10h 29m
Waning Crescent, 11% of the Moon is Illuminated
Dec 29
Waning Crescent
Jan 1
New
Jan 7
First Quarter
Jan 15
Full
Jan 24
Last Quarter

Hourly Weather History & Observations

Time (EST) Temp. Heat Index Dew Point Humidity Pressure Visibility Wind Dir Wind Speed Gust Speed Precip Events Conditions
12:53 AM 75.9 °F - 71.1 °F 85% 30.03 in 10.0 mi SSE 12.7 mph - 0.07 in   Mostly Cloudy
1:26 AM 75.2 °F - 71.6 °F 89% 30.02 in 10.0 mi SSE 12.7 mph 20.7 mph N/A   Mostly Cloudy
1:53 AM 77.0 °F - 70.0 °F 79% 30.02 in 10.0 mi SSE 12.7 mph 21.9 mph N/A   Mostly Cloudy
2:53 AM 77.0 °F - 70.0 °F 79% 30.00 in 10.0 mi SSE 15.0 mph - N/A   Mostly Cloudy
3:53 AM 75.9 °F - 71.1 °F 85% 29.98 in 10.0 mi SSE 15.0 mph - N/A   Scattered Clouds
4:53 AM 77.0 °F - 70.0 °F 79% 29.96 in 10.0 mi SSE 12.7 mph - N/A   Scattered Clouds
5:53 AM 77.0 °F - 71.1 °F 82% 29.99 in 10.0 mi SSE 10.4 mph - N/A   Mostly Cloudy
6:53 AM 77.0 °F - 71.1 °F 82% 30.01 in 10.0 mi SSE 9.2 mph - N/A   Mostly Cloudy
7:53 AM 77.0 °F - 71.1 °F 82% 30.01 in 10.0 mi SSE 10.4 mph - N/A   Overcast
8:53 AM 78.1 °F - 72.0 °F 81% 30.03 in 10.0 mi South 10.4 mph - N/A   Overcast
9:53 AM 79.0 °F - 72.0 °F 79% 30.03 in 10.0 mi South 10.4 mph - N/A   Overcast
10:53 AM 79.0 °F - 72.0 °F 79% 30.01 in 10.0 mi SSE 12.7 mph - N/A   Overcast
11:53 AM 80.1 °F 83.8 °F 72.0 °F 76% 30.00 in 10.0 mi South 11.5 mph 20.7 mph 0.00 in   Overcast
12:53 PM 81.0 °F 84.9 °F 71.1 °F 72% 29.96 in 10.0 mi South 17.3 mph 21.9 mph N/A   Overcast
1:53 PM 82.0 °F 86.3 °F 71.1 °F 69% 29.93 in 10.0 mi South 12.7 mph - N/A   Mostly Cloudy
2:53 PM 82.0 °F 86.3 °F 71.1 °F 69% 29.93 in 10.0 mi SSW 15.0 mph - N/A   Mostly Cloudy
3:44 PM 80.6 °F 83.9 °F 69.8 °F 70% 29.93 in 10.0 mi South 13.8 mph 20.7 mph N/A   Mostly Cloudy
3:53 PM 81.0 °F 84.9 °F 71.1 °F 72% 29.94 in 10.0 mi SSW 12.7 mph - N/A   Mostly Cloudy
4:53 PM 80.1 °F 83.2 °F 70.0 °F 71% 29.94 in 10.0 mi SSW 11.5 mph - N/A   Mostly Cloudy
5:35 PM 78.8 °F - 71.6 °F 78% 29.94 in 10.0 mi SSW 15.0 mph - N/A   Mostly Cloudy
5:53 PM 79.0 °F - 71.1 °F 77% 29.95 in 10.0 mi SSW 11.5 mph - N/A   Mostly Cloudy
6:53 PM 77.0 °F - 71.1 °F 82% 29.96 in 10.0 mi SW 8.1 mph - N/A   Scattered Clouds
7:19 PM 78.8 °F - 71.6 °F 78% 29.97 in 10.0 mi SW 9.2 mph 17.3 mph N/A   Mostly Cloudy
7:53 PM 77.0 °F - 72.0 °F 84% 29.98 in 10.0 mi SSW 10.4 mph - N/A   Mostly Cloudy
8:17 PM 77.0 °F - 71.6 °F 83% 29.99 in 10.0 mi SW 10.4 mph - N/A   Mostly Cloudy
8:53 PM 75.9 °F - 72.0 °F 87% 29.99 in 10.0 mi SSW 8.1 mph - N/A   Mostly Cloudy
9:08 PM 75.2 °F - 71.6 °F 89% 30.00 in 10.0 mi SW 6.9 mph - N/A   Scattered Clouds
9:36 PM 75.2 °F - 71.6 °F 89% 30.01 in 10.0 mi SW 5.8 mph - N/A   Mostly Cloudy
9:53 PM 75.9 °F - 72.0 °F 87% 30.00 in 10.0 mi SW 5.8 mph - N/A   Mostly Cloudy
10:37 PM 75.2 °F - 71.6 °F 89% 30.00 in 10.0 mi SW 5.8 mph - 0.00 in   Mostly Cloudy
10:53 PM 73.9 °F - 71.1 °F 91% 30.00 in 10.0 mi SW 4.6 mph - 0.00 in   Mostly Cloudy
11:53 PM 73.9 °F - 71.1 °F 91% 30.01 in 10.0 mi SW 3.5 mph - N/A   Mostly Cloudy
11:55 PM 73.4 °F - 71.6 °F 94% 30.01 in 10.0 mi SW 3.5 mph - N/A   Overcast